Theta_e
317 320 318 319 322 325 327 328 327 328 328 321 318 320 322 324 323 325 323 322 323 322 320 320 321 321 320 321 321 320 321 321 322 319 323 338 330 321 331 332 335 339 341 344 338 331 333 333 335 338 340 341 340 341 341 341 340 340 340 337 334 332 334 335 335 336 337 337 337 337 337 338 338 338 336 337 336 337 337 335 336 335 336 339 340 340 340 340 339 339 338 337 335 335 334 333 332
321 326 323 323 324 325 329 327 323 322 322 317 317 320 321 323 323 324 322 321 322 321 321 320 321 321 320 321 320 321 321 322 321 321 328 333 325 325 332 329 334 338 340 345 339 332 333 333 335 337 339 340 340 340 340 339 339 339 339 336 333 333 335 336 336 336 337 336 337 336 336 337 337 339 339 339 338 338 337 335 335 335 337 339 340 340 339 339 339 338 336 335 335 334 334 333 331
321 325 324 325 325 326 328 326 325 320 317 315 316 322 322 323 323 322 321 321 323 321 321 320 321 321 320 321 320 322 321 322 321 320 327 331 330 329 329 326 333 337 338 344 340 333 332 333 335 336 339 340 340 339 339 338 339 339 339 337 335 336 335 336 336 336 337 336 335 335 336 338 339 339 339 339 339 338 336 334 335 336 338 339 340 339 339 338 337 336 335 334 334 333 333 333 332
319 323 324 325 327 328 329 327 327 320 316 315 315 322 323 322 322 321 320 322 324 321 321 321 322 321 320 321 320 321 320 321 321 320 326 331 334 331 327 323 331 337 337 344 342 334 332 333 334 335 338 340 340 339 339 339 339 339 338 338 337 336 336 336 335 336 336 335 335 336 338 339 339 340 339 339 338 338 335 335 336 337 338 338 339 338 337 336 335 334 333 333 333 332 332 333 332
322 326 323 323 328 328 328 324 323 319 316 317 315 320 322 320 321 321 321 322 323 321 321 321 322 321 320 321 320 320 320 321 321 319 325 331 333 330 328 323 329 336 336 343 343 337 333 332 333 334 337 340 340 338 340 340 339 340 339 338 338 336 336 337 335 335 335 335 336 338 339 339 339 340 339 338 338 337 336 336 336 337 338 338 338 337 336 335 334 333 332 332 332 331 331 331 330
325 327 322 322 327 325 324 321 320 318 319 322 318 320 321 319 320 320 321 321 322 322 321 320 321 321 321 321 320 321 321 320 321 321 325 331 329 326 326 322 328 336 337 340 343 340 336 334 333 333 336 338 339 338 339 339 339 340 338 337 337 335 336 337 335 335 335 337 339 339 339 339 339 339 339 338 337 336 335 336 337 337 337 337 337 336 335 333 333 332 331 330 330 329 328 328 325
325 327 325 323 325 321 322 321 321 320 320 322 319 320 320 319 321 320 321 321 321 321 320 321 320 320 321 321 320 321 321 318 323 327 325 325 323 323 324 323 327 335 337 338 342 342 339 337 334 334 335 337 339 339 339 339 338 338 337 337 336 335 335 337 335 335 337 338 339 339 339 340 339 338 338 338 337 335 335 335 336 336 335 336 336 335 334 332 331 330 330 329 328 327 325 322 315
323 328 326 324 326 324 323 322 323 322 320 322 319 320 319 319 321 320 321 321 321 322 321 321 319 320 321 320 321 321 321 319 322 324 321 319 319 321 322 326 328 332 337 337 340 342 341 340 337 336 336 337 338 339 339 338 339 339 338 338 338 337 335 336 336 336 338 339 339 340 339 339 339 338 338 337 336 335 334 334 335 335 334 335 334 334 333 330 329 329 328 327 326 325 321 314 305
322 326 325 324 327 326 325 324 323 323 322 321 320 319 320 320 321 320 320 320 321 321 321 321 320 321 320 320 321 322 322 320 319 318 318 317 318 318 320 330 331 331 337 336 339 342 342 342 340 338 336 337 339 339 339 339 339 340 340 339 339 339 337 335 335 336 338 340 339 340 340 339 338 338 337 336 335 334 333 332 332 333 333 333 333 332 331 328 327 327 327 325 325 322 314 305 300
324 324 325 326 325 322 321 322 322 323 323 321 319 319 319 319 320 320 320 320 321 321 321 320 320 320 321 320 321 324 323 320 317 316 316 315 317 317 318 328 332 332 335 336 338 341 341 342 341 339 338 337 339 339 339 339 340 340 340 340 339 338 337 335 335 337 338 339 339 340 340 339 338 338 337 336 334 333 331 330 330 330 332 332 331 330 328 327 326 326 325 325 323 317 306 300 299
328 324 323 325 322 319 318 318 321 322 322 320 319 320 320 320 320 320 320 320 320 320 320 320 319 319 320 318 322 326 321 318 319 320 319 316 316 318 320 325 331 335 335 335 338 339 340 340 340 340 339 338 338 339 340 339 339 339 339 339 337 337 336 335 335 337 338 339 339 339 339 338 338 337 336 335 333 332 331 329 328 328 329 329 329 328 327 326 326 326 325 323 319 308 300 299 299
330 327 325 323 321 320 319 318 320 323 322 320 320 320 319 319 319 319 320 319 318 318 319 320 319 318 318 317 323 324 320 320 322 322 320 316 316 319 326 328 329 335 336 335 337 339 339 338 339 339 338 337 337 338 340 339 338 338 338 337 336 335 335 334 335 337 338 338 339 339 338 338 337 336 335 333 332 331 329 328 327 326 327 327 326 326 326 326 325 325 325 321 312 301 299 299 299
329 328 326 324 323 323 322 319 320 323 323 321 320 319 318 318 318 319 318 317 317 317 319 319 318 318 318 318 321 322 321 322 323 322 318 318 321 320 328 333 330 333 337 336 336 338 338 337 337 337 337 335 336 338 339 338 337 337 337 336 336 335 335 335 335 337 338 338 338 338 338 337 336 335 334 332 331 329 328 328 327 325 326 326 325 325 325 325 324 324 323 317 305 298 299 299 299
327 327 326 325 325 324 323 320 321 321 320 320 319 319 317 317 318 318 317 317 317 318 318 318 318 318 318 318 321 325 324 322 322 320 317 320 326 324 326 333 332 332 336 336 335 336 336 337 335 334 334 332 334 337 337 337 335 334 335 335 336 335 335 335 336 337 338 338 337 337 337 337 336 334 333 332 331 329 328 327 326 325 325 325 325 324 324 324 324 324 322 312 301 298 299 298 299
326 327 325 324 324 323 323 323 322 320 320 319 317 318 317 317 317 318 318 317 317 318 318 317 318 317 318 318 320 328 325 320 319 316 316 318 324 327 327 332 333 332 335 336 335 335 335 336 336 334 330 328 331 335 335 335 334 333 334 335 336 336 336 336 337 338 338 338 338 337 337 337 335 333 332 332 330 328 328 326 323 324 325 324 324 324 324 324 323 323 318 307 299 298 299 298 298
324 326 326 324 323 322 323 325 324 321 321 320 317 318 317 318 318 318 318 317 318 318 318 318 318 317 318 317 319 325 322 319 317 315 316 317 320 325 327 330 332 332 334 335 335 334 335 336 336 335 330 327 330 334 334 334 334 334 334 335 336 336 336 337 338 338 338 338 338 338 337 336 335 332 330 330 329 328 328 325 320 320 324 325 324 324 323 323 322 321 314 302 299 298 298 298 298
323 324 325 324 324 322 322 325 323 320 320 320 318 318 318 318 318 318 318 317 318 317 317 317 317 317 317 317 318 321 320 317 317 318 319 320 320 323 325 326 329 331 332 334 335 334 335 335 336 336 334 331 330 334 335 334 334 334 334 334 336 336 336 337 338 338 338 338 337 337 336 335 334 331 329 329 328 328 327 327 320 315 321 325 324 324 323 323 322 320 311 299 299 298 298 298 297
323 324 324 323 323 322 322 323 321 319 318 319 318 318 318 318 318 317 317 317 317 317 317 317 317 318 317 318 317 319 321 319 319 320 323 325 323 324 325 325 326 328 329 331 332 334 334 334 335 335 336 334 332 334 335 335 334 334 334 334 334 336 336 337 337 338 337 337 336 335 334 333 333 330 328 328 327 328 326 328 322 311 318 324 323 323 322 322 321 320 310 299 299 298 298 298 297
323 325 324 323 324 323 321 321 320 320 319 318 318 318 318 318 318 317 317 317 317 317 317 317 317 317 318 318 317 319 321 320 320 321 323 326 326 325 326 326 326 326 328 329 329 331 333 334 334 335 335 335 334 334 334 335 335 334 333 333 333 335 336 336 336 337 336 335 334 332 332 331 331 329 328 328 327 328 326 327 323 312 315 323 323 322 322 321 321 320 310 298 298 298 297 298 297
323 324 323 323 323 322 321 320 320 320 319 319 318 318 318 317 318 317 317 317 318 317 317 317 317 317 319 318 316 318 320 320 321 322 322 323 325 325 325 326 327 326 326 326 326 328 331 333 333 334 334 335 335 334 334 335 335 335 334 333 333 334 335 336 336 336 335 334 333 332 331 331 331 329 328 328 327 327 326 326 324 313 314 322 323 321 322 320 320 319 310 298 298 297 298 299 298
322 322 322 322 321 320 318 319 319 319 319 319 318 318 318 317 317 317 318 318 318 317 317 317 316 316 317 317 316 316 318 318 320 322 322 321 322 323 323 324 326 327 326 325 327 328 328 329 331 333 333 334 334 334 334 334 334 334 334 333 333 333 334 335 335 335 334 333 332 331 331 330 330 328 327 328 327 326 325 325 322 314 314 321 322 320 321 320 319 316 307 298 298 297 297 299 298
321 321 322 322 321 319 318 318 320 320 319 319 319 318 317 317 317 317 318 318 317 317 317 317 317 317 317 317 317 316 318 318 319 320 321 321 320 321 321 321 322 324 327 327 328 327 326 326 328 331 333 334 334 334 334 333 333 333 333 333 333 333 333 334 334 334 333 332 331 330 330 330 329 328 327 327 326 326 324 322 320 315 315 320 322 320 319 319 317 312 303 298 298 297 297 298 298
322 321 320 320 319 318 317 318 321 320 319 319 319 318 317 317 317 317 318 318 317 317 317 318 317 317 317 317 317 318 320 321 319 318 319 319 320 320 320 320 320 321 325 327 328 328 327 326 327 330 332 333 334 333 333 333 333 333 332 333 333 333 333 333 333 333 332 331 330 330 330 329 329 328 327 327 326 325 324 321 319 317 316 319 322 320 317 317 315 310 302 299 297 297 297 297 297
321 321 320 319 317 316 317 318 320 319 318 318 319 318 317 316 317 316 316 317 316 317 317 317 317 316 316 317 318 319 319 320 318 317 318 318 318 319 319 319 320 319 322 325 327 328 328 327 326 328 330 332 333 333 333 333 333 333 332 332 332 332 332 332 332 331 330 329 329 328 329 329 328 327 327 326 325 325 323 321 319 316 316 319 320 320 318 316 315 310 303 299 298 297 297 297 297
319 320 319 318 317 317 318 319 319 319 318 317 318 318 318 316 317 316 316 316 316 316 316 316 316 316 317 317 317 318 319 319 317 316 317 318 317 317 318 319 319 320 320 322 325 327 328 327 326 327 329 331 332 333 333 333 333 332 332 331 331 331 331 331 331 331 329 328 328 329 329 328 327 327 326 326 325 324 322 321 319 316 317 319 318 318 317 316 315 310 304 301 298 297 297 297 297
317 317 317 317 317 317 317 317 317 317 316 317 318 318 317 317 316 316 316 316 316 316 317 316 316 316 316 317 316 316 317 319 317 316 316 317 317 317 317 319 319 320 319 319 322 325 327 327 327 327 327 329 330 331 332 333 332 332 331 331 331 331 331 331 331 331 329 329 329 329 329 328 327 327 326 325 324 323 321 320 319 316 317 319 317 316 316 316 314 310 306 301 298 297 298 297 297
317 316 316 315 315 316 315 315 315 315 315 315 317 317 316 316 316 315 315 316 316 316 316 316 316 316 316 316 316 316 316 316 315 315 316 316 316 317 317 318 319 319 319 319 320 322 325 326 327 327 326 328 329 331 331 332 332 332 331 331 331 331 331 331 331 330 329 329 329 329 329 328 327 326 326 325 324 322 320 319 318 317 317 318 318 316 315 316 314 311 306 301 298 297 297 297 296
316 315 315 314 315 315 314 314 314 314 315 316 316 315 315 315 315 315 314 315 315 315 316 316 316 316 316 316 315 316 316 315 314 316 317 316 316 317 317 318 319 319 318 319 318 319 322 324 326 327 327 327 328 329 330 331 331 331 331 331 330 330 331 331 330 330 330 329 329 329 328 328 326 326 325 324 323 321 319 318 318 318 318 318 319 316 315 316 314 310 305 300 298 297 297 297 296
314 314 314 314 314 314 315 314 315 315 315 316 315 314 315 315 315 315 315 315 315 316 316 316 316 316 316 316 315 316 316 314 314 315 316 316 316 316 316 317 318 318 318 318 319 319 320 322 324 326 327 328 328 328 328 329 330 330 330 330 330 330 330 330 330 330 329 328 328 328 328 327 326 326 325 324 322 320 318 318 317 318 318 319 318 317 315 314 312 308 303 300 298 297 297 297 297
314 314 314 314 314 315 316 316 317 316 315 315 314 314 316 316 316 316 316 316 315 316 316 315 315 315 315 315 315 316 316 316 315 314 315 315 315 315 315 315 315 316 316 316 317 319 318 320 322 325 326 327 328 327 327 328 329 329 329 329 330 329 330 329 329 329 329 328 328 327 327 326 326 325 324 324 322 320 318 317 317 317 318 318 317 316 314 312 309 305 302 299 298 298 298 298 297
314 314 315 316 316 316 317 317 317 316 314 314 314 314 315 316 317 317 317 317 316 315 315 315 314 314 315 315 316 317 317 317 315 314 315 314 314 313 313 313 313 314 313 313 314 317 319 319 321 323 325 326 327 326 327 328 328 328 328 329 329 329 329 329 328 328 328 328 328 327 326 326 325 325 324 323 322 320 318 316 316 316 317 316 315 314 312 310 306 303 301 299 298 298 298 298 297
314 315 316 318 317 317 319 318 317 316 313 313 314 315 315 315 317 317 316 316 316 315 314 314 314 314 314 315 316 317 318 316 314 314 313 312 312 312 312 312 312 312 312 312 312 314 317 319 319 322 323 325 326 326 326 327 327 327 327 328 328 329 329 329 328 328 328 328 328 327 326 325 325 324 324 323 321 319 317 315 315 315 315 314 313 312 310 309 305 302 300 299 298 298 298 298 297
317 317 317 319 319 317 319 319 317 316 315 313 313 315 315 315 316 316 315 315 315 315 315 314 314 315 315 316 316 317 317 314 312 312 311 311 311 310 311 310 310 310 310 310 311 312 315 317 318 320 321 322 324 326 326 326 326 327 327 327 327 328 328 328 328 327 327 327 327 327 325 325 324 324 324 322 321 319 317 315 314 313 313 312 311 310 309 307 305 302 300 299 298 298 298 298 297
320 320 319 320 320 318 318 320 319 318 316 314 314 314 314 314 315 315 315 316 316 315 315 314 315 316 315 317 318 316 314 312 310 310 309 309 309 309 309 308 308 308 309 309 310 311 313 314 316 319 320 320 322 324 325 325 325 326 326 326 326 327 327 327 327 327 327 326 326 326 325 324 323 323 323 322 320 319 317 315 313 312 312 311 310 309 307 306 304 302 300 299 297 297 297 297 297
320 321 321 320 320 318 318 319 319 318 317 317 316 314 314 315 315 316 316 315 315 314 315 315 315 316 317 318 317 314 312 311 310 308 307 307 307 307 306 306 306 307 307 308 309 310 311 313 316 317 317 318 319 321 323 324 324 324 324 325 325 326 326 326 326 326 326 326 325 325 324 323 322 322 322 321 319 318 316 314 312 311 310 310 309 308 306 305 303 302 300 298 297 297 297 297 297
319 320 320 319 318 318 318 318 319 318 318 317 317 316 315 316 316 315 315 315 315 315 315 316 316 317 318 316 314 312 311 310 309 307 306 305 305 305 305 305 305 306 306 306 307 308 310 311 314 315 314 315 317 319 321 322 322 323 323 323 323 324 324 324 325 325 324 324 324 324 323 321 321 321 321 320 319 317 316 314 312 310 309 309 308 307 305 304 303 301 300 298 297 297 297 297 297
318 319 320 319 319 318 317 318 318 318 317 317 317 317 316 316 316 315 315 315 316 316 316 316 317 318 317 314 313 311 311 310 308 307 305 304 304 303 303 304 304 304 305 305 306 307 308 309 311 313 312 313 315 317 319 320 321 321 321 321 321 321 322 322 322 323 323 323 322 322 321 320 320 320 319 319 319 317 316 314 312 310 309 308 307 306 304 304 302 301 300 298 297 297 298 298 297
318 319 319 319 319 318 317 318 318 317 317 317 317 317 316 316 316 315 315 316 317 316 316 316 316 315 314 313 312 311 310 309 307 306 305 303 302 302 302 302 303 303 303 304 304 305 306 308 309 310 311 311 312 314 317 318 318 319 319 319 319 319 320 320 320 320 321 321 320 320 319 319 318 318 318 318 318 317 316 315 312 310 308 307 306 305 304 303 302 300 299 298 297 297 298 298 297
319 319 320 320 319 318 318 318 317 316 315 317 317 316 317 316 315 315 316 316 317 316 316 315 313 313 312 311 310 309 308 307 306 304 304 303 302 301 301 301 301 302 302 302 303 304 305 306 307 307 308 309 309 311 312 314 315 316 316 316 317 318 317 318 318 318 318 318 318 318 317 317 316 316 316 316 317 317 316 315 313 311 308 306 306 304 303 302 301 300 299 298 297 297 298 297 297
319 320 319 320 319 319 319 318 317 316 315 317 317 317 316 316 316 316 317 317 316 314 314 313 312 312 311 310 308 307 306 306 305 303 303 302 301 300 300 301 301 301 301 301 301 302 303 304 305 305 306 307 307 308 309 310 312 313 313 313 314 314 314 314 314 314 314 315 315 315 315 315 314 314 314 314 315 315 315 315 313 311 309 307 306 304 303 302 301 300 299 298 298 297 298 297 297
320 321 321 320 319 320 320 319 318 317 317 318 318 320 320 319 320 319 319 318 314 312 312 311 312 311 310 309 307 306 305 305 304 303 302 301 300 300 300 300 300 300 300 300 300 300 301 302 303 303 304 305 305 306 307 308 309 309 310 310 310 310 310 310 310 310 310 311 311 311 311 311 312 312 312 312 313 313 313 314 313 311 308 306 305 304 303 302 301 300 299 298 298 297 298 297 298
320 322 323 321 319 321 321 321 320 319 321 321 320 324 324 322 322 322 321 318 312 312 311 310 310 310 309 308 307 306 305 304 303 302 301 300 299 299 299 299 299 300 300 299 299 299 299 300 301 301 302 303 304 305 306 306 307 307 308 308 308 308 308 308 309 309 309 309 309 309 309 309 309 309 310 310 310 311 311 312 311 310 308 306 305 304 303 301 300 300 299 298 298 297 297 297 298
320 323 326 323 320 321 322 321 321 321 321 319 319 323 323 321 321 322 321 316 311 312 311 310 309 308 307 307 306 305 304 303 302 301 300 299 299 298 298 298 298 299 299 299 299 298 298 299 299 300 300 302 303 303 304 305 305 306 306 306 306 306 306 306 307 307 307 307 307 307 307 307 307 306 307 307 308 308 308 309 309 309 308 306 304 303 303 301 300 299 299 298 298 297 296 296 297
322 322 322 322 319 320 321 320 320 320 319 318 319 320 322 322 321 321 321 314 311 311 310 310 309 307 307 305 305 304 303 302 301 301 300 299 298 298 298 297 297 298 298 298 298 298 298 298 298 298 298 299 301 302 303 303 304 304 304 305 305 305 305 305 305 305 305 305 305 305 305 305 305 304 304 305 305 306 306 306 307 308 308 306 304 303 303 302 300 299 299 298 298 297 296 296 296
323 320 318 318 317 317 318 318 320 319 319 321 322 321 323 325 322 322 323 315 311 311 310 309 308 307 306 305 304 303 302 302 301 300 299 298 298 297 297 297 297 297 297 297 297 297 297 297 297 297 297 298 298 300 301 302 302 303 303 303 303 303 304 304 304 304 304 304 304 303 303 303 303 303 303 303 303 304 304 304 305 305 306 306 305 303 302 302 301 299 299 299 298 297 297 296 296
320 318 317 317 318 319 318 318 318 318 319 321 323 322 324 327 324 321 323 316 312 311 310 309 308 306 305 304 304 303 302 302 301 299 298 297 297 297 296 296 296 296 296 296 296 296 296 296 297 297 297 297 297 297 298 298 299 300 300 301 301 301 302 302 303 303 303 303 303 303 303 303 302 302 302 301 301 302 302 302 303 303 304 304 304 304 302 301 301 300 299 298 298 297 297 296 296
317 317 318 318 320 320 319 318 317 319 323 323 322 321 322 328 328 320 319 316 312 311 310 308 306 305 304 303 303 302 301 301 300 299 298 297 297 297 296 296 296 295 295 295 295 295 295 295 295 296 296 296 296 296 296 296 296 297 297 298 298 299 300 300 301 301 301 301 302 302 302 302 302 302 301 301 301 300 300 301 301 301 301 302 302 303 303 302 301 300 299 298 298 298 297 297 296
315 316 316 318 322 321 318 319 318 321 327 325 323 323 322 327 327 319 316 315 311 311 309 308 306 304 304 303 302 301 301 301 300 300 298 297 297 296 296 296 295 295 295 295 294 294 294 294 294 294 295 295 295 295 295 295 295 295 296 296 296 297 297 298 298 298 299 299 300 300 301 301 301 301 301 301 300 300 300 300 300 300 300 300 300 301 301 301 301 300 299 298 298 298 297 296 296
314 315 315 319 325 323 322 324 323 325 326 322 324 326 323 324 323 318 316 313 312 312 309 307 305 303 303 302 301 301 301 300 299 299 299 298 296 296 296 295 295 294 294 294 294 294 294 293 293 293 294 294 294 294 294 294 294 295 295 295 295 295 296 296 296 296 297 297 297 298 299 299 299 300 300 300 300 300 300 299 299 299 299 299 299 299 300 300 300 300 299 298 297 297 297 297 296
313 317 320 322 323 321 321 323 324 325 323 319 320 321 322 323 319 316 313 309 309 309 307 306 304 302 302 301 301 301 300 300 299 299 299 297 296 296 295 295 294 294 293 293 293 293 293 293 293 293 293 293 293 293 293 292 292 293 293 294 294 294 294 294 294 294 295 295 296 296 296 297 297 298 298 298 299 299 299 299 299 299 299 298 298 298 298 299 299 299 299 298 297 297 297 297 296
314 318 323 324 322 320 319 320 321 323 323 320 319 320 323 322 317 312 309 306 306 305 304 304 303 302 302 301 301 300 299 299 299 298 298 296 295 295 295 295 294 294 293 293 292 292 292 292 292 292 292 292 292 292 292 292 292 291 291 292 292 293 293 293 293 293 294 294 294 295 295 295 295 296 296 296 297 297 298 299 299 299 298 298 298 298 298 298 298 298 298 298 297 297 297 297 296
320 319 321 323 323 322 321 322 323 323 324 322 321 323 323 318 313 309 307 306 305 304 303 303 302 302 301 300 300 299 298 298 298 298 297 295 294 294 294 294 294 293 293 292 292 291 291 291 291 291 291 291 291 291 291 291 291 291 290 291 291 291 291 292 292 292 292 292 293 293 293 293 293 294 294 295 295 296 296 297 298 298 298 298 297 297 297 297 297 297 297 297 297 297 296 296 296
322 321 323 321 320 320 322 324 322 321 323 321 319 321 319 315 314 309 307 306 305 304 303 302 302 301 300 300 299 298 297 297 296 297 296 294 293 293 293 293 293 292 292 292 291 291 291 291 290 290 290 290 290 290 290 290 290 290 289 289 290 290 290 290 290 290 290 291 291 291 291 292 292 293 293 293 293 294 295 295 296 296 297 297 297 296 296 296 297 297 297 297 296 296 296 296 296
320 321 321 318 317 319 320 321 321 321 322 319 317 318 316 316 316 311 308 307 306 304 303 302 301 300 299 299 298 298 297 297 296 296 295 293 293 293 292 292 292 292 291 291 290 290 290 290 290 289 289 289 289 289 289 289 289 289 288 288 288 289 289 289 289 289 289 289 289 289 289 290 291 291 292 292 292 292 293 293 294 295 295 295 295 296 296 296 296 296 296 296 296 296 296 296 295
318 317 316 317 320 320 319 320 320 322 321 319 319 319 316 316 316 314 311 308 306 304 303 302 301 300 299 298 298 297 297 296 296 295 294 293 292 292 292 292 292 292 291 291 291 290 289 289 289 289 289 289 289 289 288 288 288 288 288 287 287 287 287 288 288 288 288 288 288 288 288 288 289 289 290 291 291 292 292 292 292 293 293 294 294 295 295 295 295 295 295 295 296 295 295 295 295
314 313 314 317 319 319 319 320 321 322 321 320 320 319 318 318 315 314 311 308 306 305 304 303 302 301 300 299 298 298 297 296 295 295 294 293 292 292 292 292 292 292 291 291 291 291 290 289 289 289 289 289 289 289 288 288 288 288 288 287 287 287 286 286 286 286 286 286 286 286 287 287 287 287 288 288 289 290 291 291 291 292 292 292 293 294 294 294 294 295 295 295 295 295 295 295 295
316 315 315 316 316 317 318 319 319 320 319 320 320 319 320 317 312 311 310 308 307 306 304 303 302 301 300 299 299 298 297 296 296 295 294 293 292 292 292 292 292 292 292 292 291 291 291 290 290 289 289 289 289 289 288 289 289 288 288 288 288 287 287 286 286 286 286 286 286 285 285 286 286 286 286 287 287 288 289 290 290 291 291 291 292 292 293 293 294 294 294 294 294 294 294 294 294
318 319 317 316 317 318 319 318 318 318 318 319 318 318 320 316 311 310 309 308 308 306 304 303 301 301 300 299 298 298 297 296 295 295 294 292 292 292 292 292 292 293 293 293 292 291 291 291 290 289 289 288 288 288 288 288 288 288 288 288 288 288 287 287 286 286 286 286 285 285 285 285 285 285 285 285 286 286 286 287 288 289 290 290 291 291 291 292 293 293 293 294 294 294 294 294 294
Wind_Speed
4 5 6 6 8 9 8 3 1 1 2 4 3 3 2 1 0 2 5 4 2 3 3 2 3 2 3 3 2 5 4 4 3 2 1 4 6 10 13 13 13 15 17 14 18 26 26 25 24 22 21 20 19 18 17 16 15 15 13 13 12 12 12 11 11 11 10 10 9 9 8 8 7 6 5 6 6 6 6 5 5 4 5 4 3 4 5 5 5 3 2 1 1 3 2 2 2
3 5 6 6 7 5 3 0 1 3 2 2 2 4 1 1 2 4 6 4 3 3 2 2 3 2 3 4 4 5 4 5 3 1 2 7 8 10 11 12 15 16 18 14 18 26 26 25 24 23 22 21 20 19 18 17 16 15 13 12 12 12 12 11 11 11 10 9 9 8 7 8 8 7 7 7 6 5 5 3 4 4 4 4 4 5 5 5 4 3 1 1 0 0 1 1 1
2 2 5 6 5 4 2 1 1 4 3 1 3 3 0 2 4 4 4 5 4 2 2 2 2 1 3 4 3 2 3 2 2 3 3 8 5 7 10 11 14 15 18 16 17 25 27 26 25 24 22 21 21 19 18 18 17 15 14 13 13 12 12 11 11 11 10 10 9 8 8 8 8 8 8 7 6 5 4 3 5 5 4 5 5 5 5 4 3 3 0 1 1 1 2 3 3
2 2 5 6 3 3 2 1 2 3 4 2 3 2 2 2 4 4 4 5 4 1 1 2 0 1 2 3 3 2 3 1 6 4 2 6 2 5 8 10 14 15 18 15 16 24 28 28 26 25 24 22 21 21 19 18 17 16 15 14 13 13 12 12 11 11 11 10 10 9 9 9 9 9 9 8 6 5 4 4 6 5 5 5 6 5 4 3 3 2 0 1 1 1 4 5 6
5 3 5 5 2 1 1 1 2 3 3 2 2 2 3 3 4 5 3 3 5 3 1 1 1 2 1 2 2 2 1 3 4 3 3 6 4 4 4 9 14 14 18 15 14 22 27 29 28 26 25 23 22 22 20 19 19 17 16 15 14 14 13 12 12 12 11 11 11 10 10 10 10 10 10 8 7 6 5 5 5 5 6 6 5 4 3 2 2 1 1 1 1 2 6 7 8
7 4 5 3 1 1 1 2 3 3 0 3 2 2 4 4 5 5 4 2 6 4 1 1 2 2 2 2 3 2 1 2 0 1 3 6 5 4 2 8 14 13 17 16 14 19 25 28 28 28 27 25 23 23 22 21 20 18 18 17 16 15 15 13 13 13 12 12 11 11 11 11 11 11 10 9 8 7 7 6 6 4 4 5 4 3 3 2 1 0 1 2 2 3 7 8 8
8 4 3 2 1 1 1 4 4 2 1 3 2 3 5 4 6 5 4 3 3 3 1 1 2 3 4 1 2 4 2 2 2 3 3 4 4 4 2 7 14 12 14 17 14 16 21 25 28 28 28 26 24 24 24 22 21 20 19 18 17 16 16 15 14 14 13 12 12 12 12 12 12 11 10 10 9 8 8 8 8 6 3 4 4 3 3 1 1 2 2 3 3 4 8 8 7
6 2 1 0 1 1 2 4 5 2 0 2 2 1 3 4 4 3 4 2 1 2 2 2 2 2 3 1 2 4 5 4 4 4 3 3 4 4 3 8 13 12 13 16 15 16 18 21 25 27 28 27 25 25 25 24 22 20 20 19 17 17 17 16 15 15 13 13 13 13 13 13 12 11 11 11 10 9 8 9 9 8 6 5 4 5 4 3 3 3 3 3 4 6 9 8 5
5 2 1 1 1 2 3 5 4 1 1 3 2 1 1 2 3 1 4 3 1 0 2 4 4 2 3 3 4 2 5 6 6 5 3 3 4 4 5 9 12 13 14 15 16 17 17 19 22 25 27 28 27 26 26 25 24 22 22 21 19 18 17 17 16 15 14 15 15 14 14 14 13 12 12 11 9 8 7 9 10 11 9 6 5 5 5 5 5 4 4 4 6 8 9 6 1
3 2 1 1 2 3 4 3 1 0 1 4 1 2 4 4 3 1 3 4 0 1 2 5 3 4 3 5 5 2 6 8 6 5 4 3 4 5 6 10 12 13 15 16 17 17 17 18 20 23 25 27 27 26 26 26 25 24 23 22 21 20 19 18 18 17 16 17 16 15 15 14 13 13 12 10 8 6 7 8 8 11 11 7 5 6 6 6 6 5 5 6 7 9 6 2 2
1 2 1 1 2 4 3 3 3 2 2 1 3 5 5 3 3 2 3 4 1 1 3 6 2 3 4 5 4 2 9 9 7 6 5 4 5 5 6 10 13 14 16 18 17 17 17 18 20 22 24 26 28 26 25 25 25 25 24 23 23 22 20 19 19 19 18 18 17 16 16 15 14 13 12 10 8 8 9 9 7 7 9 8 7 7 7 7 7 6 6 7 8 6 3 1 3
1 2 1 1 4 4 3 5 4 5 6 3 3 6 3 2 1 4 2 4 3 5 3 5 2 1 3 4 3 4 9 7 7 7 6 5 5 6 7 9 13 15 15 18 18 17 17 19 21 22 23 25 27 27 26 25 25 25 24 23 23 23 21 21 21 21 20 19 18 17 16 15 14 13 12 11 10 11 12 12 10 7 8 8 8 8 7 7 7 6 8 9 8 4 3 3 4
2 3 2 3 3 5 4 4 5 5 5 1 5 4 0 1 1 4 4 5 6 6 2 4 2 2 3 5 2 5 7 6 8 8 6 6 5 7 9 8 12 15 15 17 20 19 17 18 21 23 24 25 27 28 27 26 25 25 25 24 23 22 22 22 22 22 21 20 19 18 17 16 14 14 14 13 13 13 14 14 12 9 8 8 8 8 7 7 7 7 9 9 7 4 3 3 4
2 3 2 3 3 5 4 4 5 3 3 2 4 3 2 1 1 3 3 6 7 2 1 2 2 3 3 5 2 2 5 6 8 7 7 7 6 7 9 9 10 13 15 18 20 20 18 16 18 22 24 25 28 29 28 26 25 24 25 24 23 22 22 22 23 23 22 20 20 19 19 18 16 15 15 15 14 15 15 14 13 11 10 9 9 9 8 8 8 9 11 9 6 5 4 4 4
2 3 1 2 3 5 3 4 3 2 2 3 3 2 2 3 3 1 2 5 5 1 0 3 2 1 3 4 2 2 6 10 8 7 7 8 8 7 9 10 10 13 15 17 18 19 19 17 16 20 23 25 29 30 29 27 25 24 24 24 24 23 22 23 22 22 22 21 20 20 20 19 18 17 15 16 16 17 16 14 14 13 11 11 11 10 10 10 10 10 11 9 6 6 5 4 4
1 2 1 2 3 5 2 2 0 0 2 4 2 1 0 4 2 3 1 1 5 3 3 3 4 4 5 6 4 3 8 10 8 6 6 7 8 7 9 11 11 12 15 17 18 18 19 19 17 18 21 24 29 30 29 28 26 25 24 25 24 23 23 23 22 22 22 21 20 20 20 20 19 18 17 17 18 18 17 15 14 14 12 11 12 11 11 11 11 10 11 9 8 7 6 5 5
0 1 1 3 4 5 2 1 1 0 3 2 4 3 0 4 1 2 3 2 5 8 7 6 5 6 7 11 10 4 8 10 8 7 6 7 8 7 9 11 12 13 16 18 18 19 19 20 20 19 20 22 27 28 27 27 27 26 25 25 24 24 24 23 23 23 22 21 21 20 20 20 19 18 17 18 19 19 18 17 16 15 13 12 13 12 12 12 11 10 11 10 9 7 5 5 4
1 1 3 4 4 4 3 4 3 3 5 4 2 2 3 4 2 1 2 3 6 9 10 9 8 10 13 19 19 10 10 11 10 10 9 9 9 9 10 12 14 15 17 18 19 21 21 22 22 21 21 22 24 26 26 26 26 27 27 27 27 26 26 25 25 25 24 23 22 21 21 20 20 19 18 19 19 19 19 18 17 15 14 14 14 14 14 13 12 11 11 11 8 6 5 5 4
2 2 3 4 4 4 5 6 5 4 5 6 6 6 6 6 5 2 1 6 5 8 10 9 10 10 13 18 21 16 13 14 14 14 12 12 12 12 13 14 16 17 17 19 21 23 23 24 25 24 24 23 24 25 26 26 25 26 26 28 29 28 28 28 27 27 26 25 24 23 22 21 20 20 19 20 20 20 20 19 18 15 15 15 16 16 15 14 12 11 12 11 8 6 6 5 4
3 3 3 5 5 6 6 7 5 4 5 6 6 5 6 6 6 3 5 8 6 8 9 8 10 9 8 8 12 14 15 17 17 16 14 14 15 15 15 15 17 19 20 21 21 23 24 25 26 28 27 25 26 27 27 27 26 25 25 27 29 31 31 30 30 30 29 27 26 25 24 23 21 20 19 19 20 21 20 19 19 17 15 16 17 17 16 15 13 12 13 12 8 8 8 6 5
3 4 4 5 5 6 7 9 7 5 4 4 5 6 7 7 5 5 5 7 6 8 9 9 11 10 10 9 9 9 9 12 14 16 14 14 16 17 17 17 17 18 19 20 21 22 25 27 28 29 29 28 28 28 28 28 27 26 26 27 29 31 32 33 33 32 31 29 27 26 25 24 22 20 19 18 19 20 20 19 19 18 18 18 19 19 18 17 15 15 15 12 10 10 9 7 6
2 4 6 6 6 7 8 9 5 4 4 3 5 6 7 6 6 6 5 7 7 6 8 11 13 11 11 10 10 11 9 8 8 12 13 15 17 18 18 18 18 17 16 20 22 23 24 26 28 29 30 31 30 30 29 29 29 28 26 26 28 30 31 32 33 33 32 30 28 26 24 23 23 22 22 21 20 21 21 19 19 19 20 21 20 21 20 18 18 18 16 13 12 11 10 8 7
4 5 6 7 7 8 9 8 2 3 3 6 6 6 7 8 9 7 7 11 10 8 10 13 14 14 14 12 9 10 10 9 8 9 13 15 17 18 19 18 18 17 17 20 22 23 24 25 27 29 30 31 31 31 30 29 30 30 28 26 26 28 29 30 31 32 33 32 30 28 26 24 24 24 23 23 23 22 22 20 20 21 22 22 22 22 20 18 19 18 17 14 13 13 12 11 9
5 5 6 8 10 11 10 8 4 2 6 7 6 6 8 10 10 8 9 13 12 10 11 13 14 15 14 12 10 10 10 10 10 13 17 18 19 19 19 19 19 18 18 20 21 22 24 25 27 29 31 32 32 31 31 30 30 30 29 27 26 26 28 29 29 30 32 32 31 29 28 25 25 26 25 24 24 23 23 21 20 21 24 23 23 23 20 18 18 18 18 16 15 15 14 14 12
6 6 6 7 8 9 8 7 6 6 8 7 5 7 10 11 10 10 12 15 15 13 12 13 14 14 12 11 11 10 9 10 12 16 19 20 21 19 18 18 19 19 19 21 22 23 24 24 26 29 31 32 32 32 32 31 30 30 30 29 27 27 28 29 28 28 30 31 31 31 30 28 27 27 27 26 24 24 23 21 20 21 24 23 23 23 21 20 19 19 19 17 17 17 16 14 13
4 5 5 6 6 8 9 9 9 9 7 5 5 9 11 9 8 10 12 14 14 12 11 11 11 12 10 10 10 9 9 9 11 14 17 18 18 17 18 18 19 21 22 24 24 24 24 24 26 28 30 31 32 33 34 33 31 31 31 31 29 28 29 28 27 28 28 29 30 31 31 31 28 28 28 26 24 25 24 22 21 22 24 24 23 22 22 22 21 21 20 18 19 19 17 15 13
3 5 7 8 9 9 10 12 13 11 9 9 8 10 12 8 5 7 9 11 10 9 9 8 8 10 10 10 9 9 9 9 11 14 14 12 13 15 17 18 20 22 23 23 24 24 24 24 25 27 29 31 31 32 34 34 32 31 32 32 31 30 30 29 28 28 28 29 30 31 32 32 30 29 29 27 25 25 26 25 23 23 24 25 24 23 23 24 23 22 20 19 20 19 16 15 14
5 6 8 11 11 11 12 14 14 10 7 9 8 8 11 7 5 11 14 12 10 8 9 9 9 9 9 10 10 8 7 10 13 11 8 8 10 13 14 16 20 22 22 23 23 22 22 23 24 26 27 29 31 32 32 33 32 32 31 31 32 31 31 31 29 28 29 29 30 31 32 33 31 30 29 28 26 26 28 27 25 24 25 26 25 24 25 25 23 22 20 19 18 17 15 14 14
4 4 7 12 12 11 14 14 13 10 5 5 4 2 8 8 8 13 14 11 9 8 9 9 9 9 9 9 8 7 7 9 10 7 7 9 9 10 11 13 16 18 18 18 20 20 20 21 22 23 25 28 29 30 30 31 31 31 30 30 31 32 31 32 32 30 30 30 30 31 33 34 34 31 30 28 27 28 28 28 27 27 26 27 25 25 26 24 23 22 20 19 18 17 16 15 14
3 4 5 9 9 7 11 10 8 7 4 8 7 0 5 7 9 9 7 4 5 6 8 9 10 10 10 9 7 7 7 8 7 8 8 7 8 8 8 9 10 11 12 12 13 15 16 18 19 20 23 25 27 28 27 28 29 29 28 28 29 30 31 31 33 32 30 30 30 31 32 34 35 33 31 29 29 29 29 29 29 29 28 27 27 27 27 25 24 24 22 21 19 19 18 17 16
5 6 4 5 4 5 8 4 5 4 2 6 6 2 5 7 10 8 5 6 8 9 9 12 11 10 10 7 6 7 6 6 6 13 18 21 24 23 22 21 18 16 13 11 10 9 10 12 15 17 19 21 23 25 25 24 25 25 25 25 25 27 28 29 31 32 30 30 30 30 32 34 35 35 32 30 30 31 31 31 30 30 29 28 28 28 28 26 26 25 25 24 22 21 20 19 17
5 5 4 4 4 5 8 3 7 5 2 4 6 2 6 7 7 8 8 8 9 11 12 14 13 12 10 6 6 6 4 8 17 25 28 29 29 28 26 25 23 21 18 13 10 7 5 8 10 13 15 17 20 22 23 21 19 20 21 22 22 23 24 26 27 28 28 28 29 30 31 33 34 34 33 31 31 32 31 31 31 31 30 29 29 29 29 28 28 27 26 25 24 23 21 19 18
4 5 5 5 5 5 5 1 5 7 2 2 5 3 5 5 5 9 11 10 9 11 14 15 14 11 8 6 6 4 6 11 17 23 27 28 28 28 27 27 25 22 21 18 14 9 3 3 6 9 11 12 15 17 19 20 16 16 17 17 18 19 20 22 23 24 25 25 26 28 29 32 33 33 32 31 31 32 32 31 31 31 31 31 30 30 30 29 29 28 26 26 26 24 22 21 19
3 4 4 5 5 4 4 2 1 6 5 4 7 6 7 7 7 9 11 11 10 11 14 14 11 8 6 5 4 6 11 12 13 18 25 27 27 27 26 27 26 25 24 22 18 13 9 5 2 4 6 6 9 11 13 16 15 13 13 13 14 15 17 19 19 19 21 22 23 24 26 28 31 32 32 31 31 31 31 30 30 30 31 31 31 30 30 29 29 28 27 26 26 25 24 23 21
5 5 5 5 6 5 5 6 3 1 4 5 6 8 7 7 7 8 10 12 13 13 13 12 9 7 6 4 7 11 13 12 12 18 25 26 26 26 25 26 27 27 27 25 23 19 14 11 7 3 1 2 5 6 6 10 12 11 11 11 11 12 13 14 16 16 17 19 19 20 21 23 27 30 31 31 30 30 30 29 29 29 31 31 31 31 30 29 29 28 28 27 26 25 25 24 23
9 8 6 7 7 5 7 9 7 7 8 6 6 7 7 7 8 9 12 13 13 14 13 11 8 5 3 7 10 11 12 11 13 20 25 25 26 25 24 26 27 28 28 27 27 24 21 17 11 7 4 1 3 4 4 6 8 8 8 8 9 10 11 11 13 14 14 15 16 17 18 19 22 26 29 30 30 29 29 29 28 28 30 31 31 31 31 31 31 30 30 29 27 25 23 24 24
10 9 7 7 7 6 7 9 9 5 4 4 5 6 7 8 9 12 14 12 11 13 12 10 4 4 7 11 11 12 12 10 14 20 24 24 26 26 26 27 28 29 30 30 29 27 25 22 17 13 8 4 3 3 4 5 6 6 6 7 8 8 10 11 11 13 13 13 13 14 15 16 18 22 26 29 30 29 29 29 28 28 29 30 32 32 32 32 32 32 30 30 30 27 25 25 27
9 7 6 6 5 7 8 10 10 3 1 3 5 6 7 9 13 15 12 10 11 9 5 5 8 10 9 11 12 11 10 9 13 17 20 24 25 26 27 28 30 30 30 30 29 28 26 24 23 19 13 10 7 5 5 4 3 3 2 3 4 5 6 8 10 11 13 14 14 14 15 16 17 19 23 27 30 30 30 29 29 29 29 29 30 31 30 30 31 31 30 29 29 29 27 28 31
7 6 5 5 5 7 8 8 6 1 2 3 5 6 6 10 16 16 11 8 5 4 9 9 10 11 10 10 10 10 10 9 11 12 15 21 23 26 28 28 29 29 29 30 29 28 27 26 25 21 18 16 12 8 8 7 5 4 3 3 3 2 2 3 6 6 9 12 13 14 14 16 16 17 20 23 27 29 31 31 30 30 30 29 30 30 30 30 31 31 31 31 29 28 26 28 34
4 4 4 5 5 5 5 3 2 3 3 6 7 6 5 10 14 13 11 6 5 11 13 11 10 11 11 10 10 10 10 9 9 10 11 16 21 25 27 27 28 29 30 31 31 28 27 26 25 22 19 19 16 11 10 9 7 5 4 4 4 2 2 1 2 3 5 8 10 12 13 14 14 16 18 20 23 26 29 31 30 31 31 30 31 32 32 31 32 33 33 34 32 28 24 26 33
4 5 5 7 7 6 5 4 5 6 6 5 5 5 4 7 8 8 7 2 10 10 12 12 10 10 10 10 11 10 9 8 9 9 9 12 17 22 25 26 27 29 30 30 30 28 26 26 24 23 21 20 19 14 12 11 9 8 7 7 7 5 3 3 4 4 4 6 7 9 11 12 13 15 16 18 20 23 26 29 29 30 30 29 31 32 33 33 34 35 35 36 35 33 29 28 31
5 5 5 6 5 4 4 6 5 4 5 2 2 2 3 4 5 8 8 3 9 8 10 10 8 10 9 9 9 8 8 8 8 9 9 11 15 20 24 27 28 29 29 28 28 28 27 25 24 24 23 21 20 17 14 14 13 12 12 12 11 9 8 7 6 4 2 3 4 6 8 9 10 12 15 16 18 20 23 26 27 28 28 28 29 31 32 32 33 35 36 37 37 37 34 28 30
4 3 2 3 2 3 3 4 2 1 3 3 1 1 4 4 5 11 8 7 10 8 9 8 8 8 8 8 7 6 7 7 7 9 10 12 16 19 23 26 27 27 27 27 29 30 29 27 25 24 23 22 21 19 16 16 17 16 14 13 12 12 12 11 10 8 4 3 3 3 5 8 8 9 11 14 15 17 19 22 24 27 27 26 26 29 31 31 32 34 35 37 37 37 35 30 30
3 1 3 4 3 2 2 1 2 3 4 5 5 4 5 4 6 11 6 10 10 7 8 7 7 8 8 9 8 7 7 7 7 9 10 12 16 19 21 24 26 26 27 28 29 29 29 27 24 23 23 23 21 19 18 19 19 17 16 14 13 13 13 11 10 9 7 5 4 5 6 7 8 9 9 11 13 15 16 18 21 24 26 26 25 26 29 30 31 31 33 36 36 36 35 33 32
2 1 2 3 2 1 2 3 4 4 3 4 5 5 3 4 5 8 6 10 8 7 8 7 8 8 8 9 8 7 7 7 7 8 9 12 16 20 21 22 25 26 27 27 27 27 26 25 24 24 26 25 22 20 19 19 18 17 16 15 14 13 12 11 10 9 9 8 7 6 6 7 8 9 9 9 10 13 14 16 17 20 24 26 26 26 27 29 30 30 31 33 36 36 36 34 33
2 1 1 1 2 4 4 4 3 2 3 4 5 6 3 4 6 5 4 7 6 7 7 7 8 8 8 8 8 7 6 6 7 7 9 13 17 19 20 22 25 26 26 26 25 25 24 24 25 28 29 27 25 23 23 22 20 19 17 16 15 13 12 11 10 10 11 11 10 9 8 7 7 9 9 9 9 10 12 14 15 17 20 23 26 26 26 27 29 30 30 32 35 37 37 36 34
0 1 2 3 5 4 3 3 1 1 3 6 8 10 7 3 5 2 2 5 9 9 7 7 8 8 8 8 7 7 5 5 6 6 9 15 18 19 20 22 24 25 25 25 25 24 25 26 28 30 28 26 26 26 28 28 26 23 20 17 16 15 13 12 12 13 13 12 12 12 10 9 8 8 9 10 10 10 11 12 14 15 17 20 23 25 27 28 29 30 30 31 33 36 37 37 36
2 2 2 4 4 1 1 0 2 1 4 5 5 7 11 4 4 2 5 5 10 10 9 10 9 8 8 7 7 6 6 6 6 5 7 12 15 17 19 21 22 24 25 25 25 25 26 27 27 28 26 25 24 26 29 31 30 28 25 21 19 16 15 15 15 14 14 13 13 13 12 11 11 10 9 10 11 11 11 12 13 14 15 17 20 23 25 27 28 29 30 30 31 33 36 37 37
3 1 1 2 3 1 0 0 2 3 4 3 5 3 4 5 5 4 5 7 5 7 9 11 11 10 8 7 6 6 6 5 4 4 6 7 9 12 15 17 20 22 23 23 23 23 24 25 24 24 23 23 23 25 29 31 31 30 28 26 23 20 18 17 16 15 14 14 14 14 13 13 13 12 12 12 12 11 11 12 12 13 14 16 17 20 22 25 27 28 29 31 31 31 34 36 37
4 3 3 3 1 2 3 2 2 3 3 2 4 6 1 3 4 3 6 8 7 10 11 10 10 10 9 7 6 7 6 4 3 5 6 6 8 11 13 16 18 20 20 21 21 21 21 21 21 21 21 22 24 25 28 30 30 29 27 27 25 24 22 21 20 19 17 16 15 15 15 15 14 14 14 14 13 13 12 12 13 13 14 15 16 18 20 22 24 26 28 30 31 31 32 34 37
6 4 4 4 3 3 4 3 3 4 3 3 2 2 1 2 1 3 8 8 9 11 10 10 10 8 8 7 7 6 5 4 4 5 6 7 10 12 13 15 16 17 18 19 19 19 19 18 19 20 21 22 24 25 26 27 27 27 26 25 24 23 23 23 22 22 21 19 17 16 16 15 15 15 16 16 15 14 13 13 13 13 14 15 17 18 19 20 22 25 26 28 31 31 31 33 35
3 1 2 2 3 3 3 3 4 3 4 4 2 2 3 0 4 6 8 9 10 10 9 9 9 8 7 7 6 5 4 3 4 5 5 7 10 12 13 14 14 14 15 16 16 16 16 16 17 19 20 21 23 24 24 25 25 25 25 24 23 23 22 23 23 22 22 20 19 19 18 17 16 15 15 16 16 15 14 13 13 14 15 16 17 18 19 20 21 23 25 27 29 31 31 32 33
1 2 1 3 2 2 2 4 4 3 4 6 4 4 4 1 3 6 8 9 9 8 8 9 7 7 7 6 5 3 3 3 4 5 5 6 10 12 12 13 13 13 13 13 13 13 13 14 16 18 21 22 23 23 24 24 25 25 25 24 24 23 22 22 22 21 21 21 20 21 20 19 17 17 17 16 16 16 15 15 14 15 16 17 18 18 19 19 20 22 24 25 28 29 31 32 32
2 1 2 2 1 2 1 3 3 4 6 5 5 7 6 4 2 3 7 8 8 7 8 8 7 7 6 4 4 3 4 4 4 5 5 6 9 10 10 10 10 11 11 11 12 13 13 14 16 18 20 20 21 22 23 24 24 24 24 24 23 23 22 21 21 22 21 21 21 22 22 21 19 18 18 17 16 16 16 16 15 16 16 17 17 18 19 19 20 22 23 25 26 28 30 32 32
3 3 1 1 0 1 2 2 2 5 6 4 5 8 7 5 3 2 6 7 8 8 7 7 7 6 5 5 5 4 4 4 3 3 3 4 5 6 7 7 7 8 9 10 10 12 13 14 15 16 17 18 19 20 22 22 22 21 21 21 22 23 22 22 22 23 23 23 23 23 23 23 21 20 19 18 18 17 17 17 17 17 17 17 17 17 18 19 19 21 22 24 26 27 30 31 32
2 1 2 1 2 2 2 2 2 4 6 5 5 6 5 3 2 2 5 8 9 8 7 6 6 6 5 4 4 4 4 2 1 1 1 2 3 5 5 6 6 6 8 9 9 9 10 12 13 15 17 19 20 20 20 19 19 18 18 19 20 21 22 22 22 23 23 24 24 24 24 24 24 23 23 21 20 19 18 17 17 18 18 18 18 18 18 18 19 20 21 23 25 27 29 30 31
2 1 2 1 1 1 2 2 2 3 5 5 5 6 4 1 3 4 6 7 7 7 7 6 5 5 5 4 4 3 3 3 3 2 2 1 2 4 4 4 3 3 4 6 6 6 7 9 12 14 16 18 18 18 18 16 16 16 15 15 17 18 19 20 20 21 22 22 23 23 24 25 25 25 25 25 23 22 20 19 18 18 18 18 19 19 19 19 20 21 22 23 25 26 28 29 30
1 3 2 3 2 1 2 4 4 3 3 4 5 7 4 1 3 3 6 5 6 7 7 6 5 5 5 4 4 4 4 3 3 3 3 4 5 6 6 5 4 3 3 4 4 5 7 8 10 12 14 15 15 15 15 15 14 14 13 12 13 15 16 18 18 19 20 21 21 21 21 23 23 23 23 24 24 23 23 22 21 20 19 18 18 18 19 19 20 22 23 24 25 26 27 28 29
Wind_Direction
349 337 332 324 312 312 302 272 280 253 200 246 273 76 88 47 153 5 34 44 71 73 52 325 305 301 282 301 302 304 291 270 284 323 278 179 150 153 181 182 158 163 171 180 184 182 184 186 183 178 176 176 176 177 179 179 182 186 187 191 187 180 177 176 176 173 175 174 173 174 176 179 180 178 176 173 171 173 175 175 171 168 167 164 155 137 131 124 121 122 120 267 48 69 54 48 54
2 327 315 306 295 297 313 303 298 274 227 246 6 55 173 186 82 49 35 35 39 42 31 324 310 315 282 280 276 292 273 230 220 13 122 141 130 154 192 185 164 165 168 181 185 181 185 186 186 181 178 178 178 180 182 182 183 187 187 190 186 177 177 178 179 178 180 181 182 183 186 189 184 183 182 175 170 170 172 174 176 172 169 164 154 142 125 118 119 111 89 283 118 96 314 327 311
356 310 300 287 268 242 286 301 253 295 302 337 47 37 302 15 54 51 35 61 54 27 352 274 264 295 261 248 259 282 263 239 125 40 116 144 126 159 195 180 162 165 168 183 185 182 187 186 188 184 180 180 180 182 184 185 184 187 189 190 188 182 181 182 183 182 184 185 185 185 188 193 187 186 187 175 165 166 171 172 167 162 172 167 148 133 114 110 109 101 87 279 126 210 284 301 296
10 15 307 289 262 220 256 246 245 297 304 336 70 75 80 36 50 50 44 95 116 96 299 288 160 190 235 259 309 322 269 20 82 56 109 137 110 161 190 176 160 165 170 184 186 184 189 188 190 187 183 182 183 184 185 187 187 190 191 190 192 187 186 187 186 185 185 184 186 187 191 197 191 187 183 167 159 158 161 164 162 168 176 159 133 120 108 106 103 106 170 228 145 285 300 308 308
7 356 292 292 300 236 295 284 274 270 283 349 69 93 70 38 41 44 21 118 127 102 321 318 333 201 225 288 307 311 306 47 78 62 91 115 124 164 195 176 159 168 174 178 188 187 191 191 191 189 186 184 185 186 186 189 188 190 192 191 193 190 188 189 188 188 188 187 190 192 195 199 193 187 176 159 158 158 156 154 153 174 166 143 134 128 118 101 93 102 173 221 247 296 305 308 311
331 305 256 267 276 88 342 274 270 260 340 30 8 12 35 29 35 26 329 62 109 103 66 298 318 302 267 248 192 235 341 61 131 79 108 128 144 178 220 172 159 173 179 175 188 190 193 195 193 192 188 186 186 187 189 190 191 192 194 192 195 194 190 191 192 190 191 194 196 199 197 197 193 183 170 160 169 174 171 166 148 159 171 158 161 152 141 118 102 296 238 251 258 281 302 307 309
308 298 223 237 271 85 274 264 270 278 21 33 8 353 358 12 36 7 330 25 94 113 87 307 6 327 276 237 199 237 222 152 170 116 138 149 141 184 202 159 161 177 185 177 187 194 198 199 195 194 191 189 187 188 191 191 194 196 197 195 197 199 195 194 195 194 195 199 201 203 197 194 191 179 172 171 187 195 186 190 174 164 195 203 189 180 183 189 231 256 257 263 246 267 296 303 305
291 289 119 255 264 185 235 262 263 256 137 86 72 332 332 11 47 3 325 325 242 128 167 185 90 299 260 178 241 210 162 144 151 142 164 182 165 199 177 156 167 178 189 179 185 198 202 204 199 197 194 191 189 190 193 193 194 196 197 197 199 201 201 198 197 198 198 203 205 203 196 191 185 178 182 181 197 209 199 211 209 194 197 206 205 203 208 231 248 242 243 245 232 267 291 297 302
250 226 35 320 271 230 236 247 244 234 117 82 50 295 60 34 73 58 313 299 266 73 189 140 124 236 312 328 267 159 129 147 147 152 180 202 199 210 175 164 172 178 186 179 187 201 204 206 203 201 198 194 192 192 195 195 195 196 198 199 200 202 205 204 199 200 201 205 205 200 194 189 183 184 190 192 209 222 221 230 232 227 215 202 215 217 218 232 234 229 232 224 234 272 291 293 299
225 188 346 304 285 263 250 244 204 158 126 98 89 16 47 40 38 59 293 303 211 183 143 112 148 227 303 311 279 153 154 166 139 151 186 194 201 203 184 173 174 181 184 179 190 202 202 204 204 204 203 199 196 196 197 197 198 199 200 201 202 204 207 207 201 200 204 207 203 198 195 188 188 191 194 206 225 228 236 241 233 227 219 210 222 223 221 220 216 221 222 218 247 279 289 276 123
260 185 151 333 285 266 284 352 5 321 317 89 119 70 49 56 14 284 252 281 256 245 180 128 170 240 277 278 275 146 152 158 138 159 182 179 191 188 188 183 177 183 187 183 188 202 204 203 205 207 207 204 201 199 200 201 202 202 202 203 206 207 207 207 202 200 205 208 203 198 195 191 194 196 200 213 221 216 229 237 223 211 209 214 223 222 216 209 209 215 212 225 261 281 262 167 117
289 245 108 289 285 289 343 357 326 324 323 305 103 80 49 88 5 285 308 313 316 307 257 137 157 241 292 272 260 144 140 143 146 173 188 175 188 179 181 195 188 185 191 189 187 198 208 207 205 209 209 208 205 203 204 205 206 206 206 207 208 208 207 205 201 201 205 208 205 199 195 196 200 200 206 213 212 217 229 235 236 222 206 212 214 213 211 207 210 208 212 237 264 254 191 144 114
267 314 359 278 299 310 333 331 301 320 313 318 91 99 131 117 253 297 346 327 310 303 326 73 19 14 289 278 263 149 142 149 162 182 187 163 186 190 177 196 202 189 193 197 192 195 206 212 209 210 210 210 208 206 207 208 210 211 211 211 211 210 207 205 203 203 205 208 206 201 198 198 201 207 215 218 222 229 233 236 237 222 205 211 208 209 211 209 210 205 219 244 253 215 182 146 126
294 334 357 290 319 304 294 284 292 319 303 78 94 136 142 256 268 336 344 305 300 296 33 5 11 31 282 266 280 153 167 182 186 188 175 163 183 206 182 189 212 194 196 204 200 199 203 214 214 212 212 211 210 208 208 211 213 214 214 213 213 211 208 207 206 206 207 207 204 200 200 199 201 214 223 225 230 235 236 234 223 206 202 209 206 209 210 208 207 205 227 244 236 207 185 159 145
317 332 346 283 297 292 249 240 298 344 304 95 122 148 136 248 208 230 270 276 289 98 35 273 173 112 282 277 297 148 185 192 193 188 180 185 188 207 192 188 211 199 201 208 207 205 203 210 217 216 214 212 210 207 209 211 214 215 215 214 213 212 211 211 209 208 208 206 202 200 203 205 207 218 225 227 231 235 240 238 217 199 199 205 204 206 205 206 202 204 230 239 221 207 188 175 164
332 325 326 260 277 286 241 222 54 274 309 88 144 124 4 280 183 180 247 285 293 315 306 257 184 212 271 280 286 126 173 188 189 194 192 208 198 205 208 199 208 205 205 211 212 211 206 206 212 216 215 213 209 207 210 211 214 214 213 213 213 214 213 213 210 208 208 206 204 205 210 214 217 222 226 226 229 234 240 242 227 204 197 202 202 201 199 200 194 202 229 229 210 204 189 186 175
305 323 240 253 259 264 252 229 153 194 325 68 174 161 334 306 30 137 13 1 282 290 277 259 232 232 245 254 261 213 193 199 193 203 198 213 211 209 222 215 213 212 212 213 212 211 208 206 207 213 215 212 208 207 211 213 215 214 213 213 211 213 213 212 210 207 208 209 211 213 218 221 223 225 225 226 229 235 239 242 238 214 197 199 198 196 195 195 190 199 225 222 207 202 189 190 178
217 197 216 241 241 255 342 327 326 3 331 330 280 311 327 313 315 104 27 295 255 272 270 269 259 242 240 244 251 233 203 207 198 202 200 203 206 204 218 221 218 219 219 219 215 211 210 209 206 207 212 213 209 207 210 214 217 216 216 215 212 212 212 211 211 210 211 213 217 220 224 226 228 228 226 229 231 235 239 240 241 224 200 195 195 193 192 193 190 193 219 221 205 200 196 195 181
217 230 233 243 247 275 322 308 320 353 318 316 314 327 335 326 327 354 287 278 273 280 279 283 279 262 249 241 239 222 201 210 206 205 205 202 203 205 213 216 217 219 220 223 221 215 212 210 208 206 208 212 210 207 208 210 214 217 218 218 215 213 211 212 212 213 215 217 221 224 227 228 229 231 231 233 235 236 238 238 240 230 204 195 197 195 192 193 188 187 215 221 202 202 209 201 181
212 216 243 246 260 286 300 299 311 318 311 313 309 341 336 310 310 299 277 280 270 269 274 280 279 274 281 271 247 228 208 211 209 207 211 211 213 215 218 215 215 219 223 227 227 220 214 212 211 209 207 208 209 208 208 208 211 217 218 219 218 217 215 214 215 216 218 220 223 224 226 227 227 230 232 236 237 235 235 235 236 228 205 197 201 199 193 194 189 189 213 217 200 208 216 203 183
203 192 233 259 291 303 301 304 314 326 349 342 317 332 309 290 285 273 278 280 257 253 260 268 277 285 302 319 310 281 245 226 210 204 211 220 224 226 229 227 226 229 228 225 224 222 220 217 214 212 209 207 208 208 208 208 209 215 218 219 219 220 219 218 218 219 220 221 223 224 223 222 222 224 226 229 229 228 230 230 227 220 205 199 203 202 197 196 195 201 214 212 201 210 216 208 195
244 234 243 263 286 288 285 296 324 20 2 320 297 298 291 291 284 270 263 261 251 252 263 271 280 290 294 298 305 300 288 271 230 204 209 220 228 232 236 237 238 238 225 215 218 223 225 222 217 213 210 208 208 207 207 207 207 210 215 217 218 219 221 222 221 220 220 219 220 222 221 218 218 218 219 220 221 223 227 226 219 211 205 202 204 206 202 201 206 212 218 211 207 212 214 214 206
219 251 254 266 272 274 282 293 336 64 320 289 282 287 297 295 284 273 258 257 256 255 263 270 273 274 277 278 281 280 275 272 255 227 223 227 231 233 236 237 236 235 223 217 220 223 224 223 218 214 211 209 210 209 207 208 208 209 211 213 216 218 219 221 222 221 219 218 218 219 220 215 213 214 214 217 219 221 224 223 216 208 204 205 205 207 207 208 213 219 220 213 212 215 214 214 206
222 251 270 277 277 277 281 293 311 315 285 276 278 290 286 278 279 280 267 266 267 264 264 269 272 273 274 271 264 263 260 259 256 245 240 240 242 241 240 238 237 235 228 224 224 221 223 223 219 215 213 210 209 209 208 209 210 211 211 211 215 216 214 217 220 220 219 217 216 215 215 213 209 209 211 216 217 216 218 218 215 206 203 206 208 208 209 213 217 222 223 214 212 216 217 214 208
250 260 270 269 271 282 289 293 287 276 271 266 270 276 268 265 275 279 272 271 270 267 265 264 268 271 268 266 261 259 254 251 254 252 245 244 247 247 242 238 236 234 229 228 227 223 223 224 220 216 214 212 210 209 208 209 210 211 211 210 213 213 212 215 217 218 217 216 214 211 211 210 207 207 209 214 214 209 210 212 211 204 201 205 210 207 206 215 217 220 224 214 211 218 219 216 212
260 283 300 298 295 301 301 292 278 269 265 250 247 261 262 265 278 275 262 262 264 261 257 252 259 266 263 265 264 263 261 251 247 252 252 248 246 244 239 236 233 233 233 231 230 228 225 224 220 217 216 214 211 209 209 209 210 211 212 211 211 212 211 212 214 214 214 212 211 209 209 209 206 206 207 211 213 206 203 206 206 201 199 205 212 206 203 214 216 217 220 214 213 219 220 217 215
356 327 315 307 296 289 280 274 270 265 263 250 242 259 265 267 280 275 259 256 263 268 266 254 251 258 258 263 264 264 265 261 255 253 255 250 239 238 236 233 233 238 239 235 234 233 228 224 221 219 218 215 212 210 210 209 209 210 212 213 211 212 211 210 211 212 211 210 209 209 208 208 206 206 207 210 212 206 201 202 202 200 200 205 212 207 203 213 216 215 217 215 215 219 220 218 217
8 341 316 294 284 279 268 263 261 254 249 234 225 261 279 279 249 252 261 264 267 273 275 268 257 254 255 261 268 270 266 269 270 256 242 245 240 241 240 236 238 243 245 244 244 239 232 227 223 221 218 215 213 212 211 210 210 211 212 213 212 211 211 210 210 211 210 210 210 209 208 207 207 207 207 208 210 205 201 202 200 199 200 204 209 206 206 212 214 215 216 215 215 217 218 216 216
354 337 303 285 280 272 263 258 252 244 222 160 140 296 283 272 243 244 253 256 260 265 271 272 267 269 270 273 280 285 282 281 283 273 254 257 257 250 249 251 250 249 253 258 254 245 240 234 226 223 219 216 215 213 214 213 212 213 213 214 212 211 211 211 210 211 210 210 210 210 209 208 207 207 206 207 208 205 202 202 199 199 200 203 206 205 207 211 211 212 212 211 210 209 211 210 209
288 265 258 280 291 274 263 256 233 228 187 121 110 218 258 269 270 266 265 268 285 286 283 278 274 278 278 280 287 288 290 285 283 292 297 324 1 356 338 327 306 288 286 284 267 249 244 241 231 224 220 217 218 216 215 216 214 213 214 215 214 212 213 213 212 212 211 210 210 211 210 209 208 206 205 206 207 206 205 203 201 200 201 204 205 206 208 209 208 208 207 206 204 205 208 207 205
263 260 238 258 279 274 271 249 147 151 189 133 124 224 248 272 284 294 326 345 326 305 289 280 274 273 275 281 286 281 288 307 352 15 21 27 25 19 14 7 359 349 334 317 298 268 244 241 234 224 220 219 219 218 216 217 217 216 216 217 217 215 215 215 214 213 213 211 211 211 210 209 208 207 206 207 207 207 207 205 204 203 204 206 207 209 209 208 208 208 208 204 200 201 207 206 203
254 262 257 233 222 263 279 244 153 162 249 161 136 205 246 253 290 315 322 315 303 291 280 276 274 273 283 301 301 293 325 16 33 35 32 29 24 20 17 11 7 5 1 356 346 317 254 240 239 227 222 222 220 220 217 217 219 217 217 218 219 218 217 217 216 215 215 215 215 215 213 211 209 207 206 208 208 208 208 207 207 206 206 207 209 210 210 209 208 209 209 207 202 200 205 206 202
237 230 247 244 230 251 275 262 170 164 125 197 190 218 255 252 289 296 288 279 270 269 269 269 273 277 287 297 298 330 30 39 39 35 31 28 24 21 19 16 13 12 12 12 11 5 344 264 255 232 226 226 224 224 219 217 219 216 215 218 219 220 220 219 217 217 217 218 219 219 218 214 211 208 207 211 211 210 211 210 209 208 208 209 210 211 211 211 210 209 208 208 208 204 205 204 198
246 238 247 258 259 269 290 333 156 147 140 212 218 221 243 247 256 268 278 284 274 265 268 272 280 289 287 292 329 41 56 50 40 32 30 28 26 24 21 19 20 22 22 22 24 28 36 32 9 207 215 228 226 228 224 219 219 217 215 217 219 220 222 220 218 220 220 220 221 222 222 218 215 212 211 214 215 213 213 213 211 210 210 210 212 213 212 211 211 211 209 208 210 208 206 202 196
268 274 277 285 287 301 299 298 314 260 224 232 232 239 253 266 273 278 279 279 275 270 271 277 284 291 299 357 52 63 63 57 47 38 33 30 28 26 25 25 26 27 27 27 30 35 39 41 52 96 176 229 218 220 219 214 215 219 218 217 220 219 220 219 217 221 222 222 224 226 227 224 219 217 216 217 216 215 213 214 215 214 213 212 212 213 211 209 209 211 211 208 207 209 210 205 198
263 271 278 287 289 288 282 281 285 288 278 265 259 265 280 289 288 283 271 267 272 274 275 277 275 282 356 59 71 69 65 60 50 45 38 32 29 28 29 30 32 33 32 30 32 34 36 39 49 55 42 69 177 189 188 192 201 210 215 218 223 222 222 223 220 221 223 223 225 228 231 229 223 220 219 219 218 217 216 216 217 217 216 214 213 213 210 209 210 210 211 209 202 202 208 205 198
264 270 272 278 285 281 277 281 284 298 300 276 278 285 289 292 284 274 271 274 274 271 276 287 310 46 66 74 76 71 68 58 48 45 40 34 30 30 32 32 34 35 34 33 33 32 34 38 45 49 46 53 92 134 158 171 180 193 207 218 226 228 229 230 228 225 225 227 227 230 233 231 226 222 221 221 221 220 220 220 219 219 219 216 217 218 216 214 213 212 210 209 203 196 196 198 198
287 285 285 285 283 278 279 282 286 318 58 274 294 293 292 298 285 275 275 278 275 280 312 5 48 63 67 72 71 67 65 53 44 40 36 33 31 31 33 33 34 33 31 33 34 33 36 39 40 43 46 44 53 79 98 120 141 160 181 203 217 224 228 229 231 231 229 231 233 233 235 234 231 228 226 225 224 224 223 222 221 223 222 219 221 222 220 217 214 212 208 206 204 200 196 196 196
290 293 298 289 273 279 284 276 276 71 116 286 306 297 297 290 279 279 279 271 286 36 64 64 67 70 64 64 64 60 57 47 41 35 31 33 33 34 35 34 34 33 31 32 33 34 36 38 37 39 43 43 43 53 65 71 82 96 93 68 87 132 127 174 200 214 222 227 233 236 238 240 239 236 233 230 229 228 226 225 225 226 225 222 222 221 220 217 214 212 209 207 203 200 200 198 199
255 264 276 273 268 275 277 276 337 16 309 289 294 290 288 278 275 279 270 253 78 74 77 70 69 73 69 64 61 58 57 49 44 38 30 34 36 37 37 36 35 33 32 30 30 32 33 35 37 38 42 43 40 41 51 56 61 71 71 50 53 74 78 118 214 229 231 229 231 237 241 243 244 244 241 237 235 234 232 230 228 228 228 225 224 223 219 217 215 212 211 210 203 197 197 198 202
253 239 241 255 261 262 269 321 350 337 305 289 297 294 260 263 287 297 272 139 84 81 82 72 66 69 67 66 62 57 57 52 50 43 30 34 40 42 41 39 38 36 33 30 30 30 32 35 38 40 44 45 40 40 51 56 54 51 46 42 41 37 24 346 306 287 264 255 248 249 254 252 250 249 248 245 243 241 238 235 232 231 231 229 226 225 223 221 219 215 212 211 206 202 200 198 201
270 246 245 257 270 285 305 338 353 340 305 296 42 344 251 257 298 285 266 107 84 78 82 78 71 66 60 59 56 53 54 49 50 48 34 32 38 44 44 41 40 38 34 33 34 34 35 37 38 39 43 45 43 42 52 60 58 51 44 40 36 29 24 18 12 14 324 294 283 265 263 261 258 254 252 251 250 247 244 241 237 234 235 234 230 229 228 225 222 219 216 213 210 210 205 198 199
259 242 304 318 357 359 341 349 5 283 272 252 152 281 264 261 265 261 251 113 96 84 82 82 76 73 69 63 49 41 47 42 45 47 39 32 33 38 40 40 40 39 37 38 39 38 38 39 39 38 40 44 46 46 52 59 59 52 46 42 37 31 26 21 19 22 15 351 334 299 279 273 271 265 257 255 253 251 250 247 243 240 239 240 237 233 231 229 227 225 221 217 215 213 209 202 202
244 241 352 5 37 15 346 338 244 237 271 266 228 226 264 267 251 250 216 116 105 100 93 88 81 75 75 74 58 39 42 40 41 44 41 35 33 36 38 40 42 42 41 41 42 41 42 43 43 42 43 46 48 50 55 59 58 52 46 44 39 33 27 20 16 15 11 358 331 309 300 286 281 283 273 264 259 255 254 251 248 245 243 244 243 239 236 234 233 230 227 223 220 217 214 211 209
220 228 359 29 61 296 261 240 250 265 307 284 215 180 238 269 258 245 181 121 116 125 115 105 96 84 77 76 67 47 36 37 44 46 45 39 36 38 40 42 43 43 43 42 43 43 45 47 47 48 47 48 50 53 58 62 63 58 51 45 38 33 28 22 19 15 11 4 347 326 313 296 287 289 287 281 271 264 262 259 254 249 246 246 245 245 243 240 237 235 233 229 224 222 220 218 217
206 249 314 322 233 240 238 233 253 300 290 259 214 176 191 276 266 239 163 132 138 140 126 115 106 98 88 79 73 59 33 28 40 46 49 47 42 38 41 44 43 42 43 43 44 44 44 46 47 48 47 46 48 53 58 60 61 60 54 45 39 36 32 27 24 19 11 4 358 348 336 318 299 290 289 291 288 277 271 267 262 257 252 249 247 247 247 245 242 240 239 236 230 226 224 222 222
233 314 333 301 259 225 215 219 172 340 266 247 230 198 185 277 283 230 117 148 153 142 138 131 114 102 95 85 74 65 46 26 28 37 44 46 44 39 39 42 40 39 41 42 41 40 40 42 44 46 45 43 45 50 56 58 58 58 53 45 37 33 33 32 28 22 14 8 3 357 350 341 328 311 297 293 294 293 284 278 272 267 262 256 252 250 249 249 247 244 243 242 236 231 227 226 226
33 23 4 328 300 182 127 79 118 178 253 269 276 199 183 216 283 330 38 101 146 149 149 141 121 104 92 83 78 70 55 34 18 28 41 41 40 34 33 37 37 36 36 35 35 35 37 39 42 44 42 40 41 45 52 55 55 55 52 47 40 33 33 33 27 20 14 10 5 359 356 351 345 337 324 310 301 297 292 288 283 277 273 267 261 257 254 252 251 248 246 245 243 237 232 230 229
84 92 25 325 319 331 264 244 166 217 239 269 357 43 181 219 276 308 33 60 90 118 126 126 119 109 96 88 85 74 59 39 12 27 43 41 37 32 32 36 36 36 34 33 34 34 34 35 38 41 40 39 40 43 49 51 51 50 49 47 43 38 37 35 28 21 13 8 2 357 354 350 345 342 337 331 325 313 300 291 288 284 283 282 275 268 263 258 254 252 249 247 247 244 237 233 232
158 173 161 176 273 299 269 260 245 249 252 270 14 28 336 239 280 328 76 70 57 77 92 99 104 104 100 96 85 75 67 46 24 38 42 38 34 32 35 38 37 36 35 34 35 36 35 33 33 37 38 38 39 42 47 49 48 47 47 46 43 41 39 37 34 28 21 14 7 360 355 349 343 338 333 328 328 326 317 302 291 286 287 289 285 278 272 267 260 255 253 250 249 248 244 239 237
194 198 162 175 208 232 249 265 261 262 283 297 350 30 252 216 225 78 91 86 71 75 82 85 89 90 91 87 75 71 66 44 37 44 45 40 34 33 37 38 37 36 34 34 35 36 37 34 33 35 37 37 38 40 43 45 45 43 44 44 42 40 38 38 38 34 29 23 16 7 360 353 345 337 331 324 317 317 320 315 301 290 290 291 289 284 278 273 268 261 257 255 252 251 249 245 242
232 220 110 204 214 210 254 271 260 274 298 287 252 228 260 259 100 99 94 88 82 81 85 88 87 87 84 77 73 71 60 46 42 43 42 36 34 35 37 35 35 34 32 33 34 34 35 33 33 36 38 40 40 40 41 42 42 41 39 39 39 38 37 37 36 34 31 28 24 17 8 2 354 344 335 328 322 316 314 315 308 299 296 295 292 288 283 278 273 267 263 259 256 254 252 250 247
352 53 161 235 212 140 267 276 271 270 268 262 251 259 281 330 103 112 101 94 95 94 91 92 91 88 85 83 93 102 88 67 51 47 41 30 29 32 33 33 32 31 32 34 35 34 33 31 33 37 40 42 42 41 42 42 42 39 36 35 35 34 34 34 33 31 30 30 28 24 18 14 9 360 350 341 333 325 316 309 305 300 298 296 293 290 286 281 277 272 267 264 261 259 256 254 252
116 206 240 267 358 62 228 257 266 256 255 248 244 263 277 277 252 137 121 111 107 109 104 103 102 97 99 115 124 114 92 76 60 55 47 37 32 27 27 29 31 33 34 36 38 38 40 40 39 40 41 41 41 42 43 42 41 39 35 33 32 31 31 31 31 29 28 28 26 23 20 19 18 12 4 355 346 338 329 319 311 305 301 298 295 292 289 284 279 275 271 267 265 262 259 257 256
141 208 262 80 200 278 244 225 227 241 259 257 230 248 258 250 255 149 142 136 123 123 124 122 124 126 130 132 126 108 91 82 70 65 50 42 32 17 17 18 21 29 29 30 34 35 39 41 41 42 41 39 40 41 41 40 39 37 34 32 31 29 28 28 28 26 24 24 22 18 16 15 15 14 10 6 0 353 344 334 325 318 311 306 301 296 293 289 283 279 274 271 269 266 262 260 259
80 33 344 119 168 212 225 246 257 239 258 268 243 245 251 256 318 49 123 135 136 140 136 129 129 132 135 133 130 125 123 127 117 104 86 47 10 352 358 360 5 16 16 17 20 20 26 30 32 34 32 33 34 35 35 34 32 29 27 26 25 24 25 25 26 24 22 21 18 15 13 10 9 9 7 6 6 3 356 347 337 328 322 317 311 304 299 295 289 284 279 275 272 269 265 263 261
45 45 294 250 171 228 275 276 246 233 257 269 262 256 253 314 358 57 99 114 130 133 127 123 123 121 125 134 140 149 160 172 185 181 171 195 254 278 292 304 318 330 339 352 359 0 7 15 22 26 25 26 27 27 27 26 24 20 18 17 14 13 15 17 19 20 19 18 15 13 11 7 5 4 2 1 1 1 0 356 349 342 334 327 320 314 309 303 296 289 283 278 274 270 266 265 265
223 154 205 260 247 210 283 269 230 216 238 239 254 262 251 281 344 64 91 93 106 120 126 131 140 142 143 148 150 160 176 182 184 182 189 211 226 242 255 263 269 274 295 320 339 354 3 11 17 21 23 23 22 21 20 18 16 13 11 8 5 5 5 6 8 10 9 9 8 6 5 3 1 1 359 357 356 355 355 354 352 350 346 339 330 322 315 309 301 293 286 279 275 271 268 267 265